Weather History for Kansas City International, MO

Change the Weather History Date:

Sunday, June 8, 2014

  Actual Average Record
Temperature  
Mean Temperature 68 °F 72 °F  
Max Temperature 75 °F 82 °F 100 °F (1911)
Min Temperature 60 °F 61 °F 48 °F (2003)
Degree Days  
Heating Degree Days 0 0  
Month to date heating degree days 0 7  
Since 1 June heating degree days 0 7  
Since 1 July heating degree days 5785 5131  
Cooling Degree Days 3 7  
Month to date cooling degree days 63 50  
Year to date cooling degree days 224 166  
Since 1 June cooling degree days 63 50  
Growing Degree Days 18 (Base 50)    
Moisture  
Dew Point 59 °F    
Average Humidity 75    
Maximum Humidity 93    
Minimum Humidity 57    
Precipitation  
Precipitation 0.00 in 0.18 in 3.26 in (1910)
Month to date precipitation 2.66 1.42  
Year to date precipitation 11.28 15.25  
Snow  
Snow 0.00 in 0.00 in 0.00 in ()
Month to date snowfall 0.0 0.0  
Since 1 June snowfall 0.0 0.0  
Since 1 July snowfall 26.1 18.8  
Snow Depth 0.00 in    
Sea Level Pressure  
Sea Level Pressure 29.99 in    
Wind  
Wind Speed 8 mph (ENE)    
Max Wind Speed 14 mph    
Max Gust Speed 16 mph    
Visibility 9 miles    
Events      
T = Trace of Precipitation, MM = Missing Value Source: NWS Daily Summary

Daily Weather History Graph

Daily Weather History Graph

Search for Another Location

Airport:

Trip Planner

Search our weather history database for the weather conditions in past years. The results will help you decide how hot, cold, wet, or windy it might be!

Date:

Astronomy

Jun. 08, 2014 Rise Set
Actual Time 5:52 AM CDT 8:44 PM CDT
Civil Twilight 5:20 AM CDT 9:16 PM CDT
Nautical Twilight 4:39 AM CDT 9:56 PM CDT
Astronomical Twilight 3:53 AM CDT 10:42 PM CDT
Moon 4:04 PM CDT (6/8) 2:44 AM CDT (6/8)
Length of Visible Light 15h 55m
Length of Day
14h 51m
Waxing Gibbous, 77% of the Moon is Illuminated
Jun 8
Waxing Gibbous
Jun 12
Full
Jun 19
Last Quarter
Jun 27
New
Jul 5
First Quarter

Hourly Weather History & Observations

Time (CDT) Temp. Dew Point Humidity Pressure Visibility Wind Dir Wind Speed Gust Speed Precip Events Conditions
12:53 AM 63.0 °F 60.1 °F 90% 29.96 in 10.0 mi NNW 8.1 mph - N/A   Partly Cloudy
1:53 AM 63.0 °F 60.1 °F 90% 29.96 in 10.0 mi NNW 6.9 mph - N/A   Clear
2:53 AM 62.1 °F 59.0 °F 90% 29.98 in 10.0 mi NW 6.9 mph - N/A   Clear
3:53 AM 61.0 °F 57.9 °F 90% 29.98 in 10.0 mi NNW 5.8 mph - N/A   Scattered Clouds
4:05 AM 61.0 °F 57.9 °F 90% 30.01 in 10.0 mi NNW 6.9 mph - N/A   Mostly Cloudy
4:53 AM 61.0 °F 57.0 °F 87% 30.02 in 10.0 mi North 8.1 mph - N/A   Overcast
5:25 AM 61.0 °F 57.0 °F 87% 30.05 in 10.0 mi North 6.9 mph - N/A   Overcast
5:53 AM 61.0 °F 57.0 °F 87% 30.03 in 10.0 mi North 5.8 mph - N/A   Overcast
6:53 AM 61.0 °F 57.9 °F 90% 30.02 in 8.0 mi NNE 10.4 mph - N/A   Overcast
7:53 AM 61.0 °F 57.9 °F 90% 30.04 in 5.0 mi NE 9.2 mph - N/A   Overcast
8:00 AM 61.0 °F 57.9 °F 90% 30.05 in 6.0 mi NE 10.4 mph - N/A   Overcast
8:53 AM 63.0 °F 59.0 °F 87% 30.04 in 9.0 mi ENE 6.9 mph - N/A   Overcast
9:53 AM 64.0 °F 59.0 °F 84% 30.04 in 8.0 mi NE 6.9 mph - N/A   Overcast
10:53 AM 64.9 °F 59.0 °F 81% 30.03 in 8.0 mi East 5.8 mph - N/A   Overcast
11:53 AM 68.0 °F 59.0 °F 73% 30.04 in 10.0 mi ESE 4.6 mph - N/A   Overcast
12:53 PM 70.0 °F 60.1 °F 71% 30.04 in 10.0 mi South 4.6 mph - N/A   Overcast
1:53 PM 71.1 °F 59.0 °F 66% 30.02 in 10.0 mi ESE 4.6 mph - N/A   Overcast
2:53 PM 71.1 °F 59.0 °F 66% 30.00 in 10.0 mi SSE 4.6 mph - N/A   Overcast
3:53 PM 73.0 °F 60.1 °F 64% 29.99 in 10.0 mi SE 8.1 mph - N/A   Overcast
4:53 PM 75.0 °F 59.0 °F 57% 29.95 in 10.0 mi East 9.2 mph - N/A   Scattered Clouds
5:53 PM 73.9 °F 59.0 °F 59% 29.95 in 10.0 mi East 12.7 mph - N/A   Scattered Clouds
6:53 PM 73.0 °F 57.9 °F 59% 29.94 in 10.0 mi ESE 8.1 mph - N/A   Partly Cloudy
7:53 PM 71.1 °F 57.0 °F 61% 29.95 in 10.0 mi East 8.1 mph - N/A   Scattered Clouds
8:53 PM 70.0 °F 57.9 °F 65% 29.95 in 10.0 mi East 10.4 mph - N/A   Mostly Cloudy
9:53 PM 69.1 °F 57.9 °F 68% 29.96 in 10.0 mi East 9.2 mph - N/A   Scattered Clouds
10:53 PM 68.0 °F 59.0 °F 73% 29.95 in 10.0 mi ESE 9.2 mph - N/A   Scattered Clouds
11:53 PM 66.0 °F 59.0 °F 78% 29.94 in 10.0 mi ESE 8.1 mph - N/A   Partly Cloudy